Location: Newark
(44.3449°N, 4.8694°E)
Time: 13:03:12
(UTC+00:00)

X-37B - Visible Passes

Search period start: 08 March 2021 00:00
Search period end: 18 March 2021 00:00
Orbit: 383 x 391 km, 45.0° (Epoch: 27 February)

Date Brightness Start Highest point End Pass type
(mag) Time Alt. Az. Time Alt. Az. Time Alt. Az.
10 Mar 3.0 18:40:36 10° SSE 18:41:13 11° SE 18:41:13 11° SE visible
11 Mar 2.0 19:16:17 10° SW 19:18:22 26° S 19:18:22 26° S visible
12 Mar 2.4 18:18:39 10° SSW 18:20:56 18° SSE 18:23:05 11° ESE visible
12 Mar 2.8 19:54:01 10° WSW 19:55:23 23° WSW 19:55:23 23° WSW visible
13 Mar 1.0 18:55:48 10° SW 18:58:53 46° SSE 18:59:58 31° ESE visible
13 Mar 4.1 20:32:15 10° W 20:32:16 10° W 20:32:16 10° W visible
14 Mar 0.8 19:33:52 10° W 19:36:45 70° W 19:36:45 70° W visible
15 Mar 0.6 18:35:32 10° WSW 18:38:43 69° SSE 18:41:10 16° E visible
15 Mar 3.1 20:12:11 10° W 20:13:28 22° W 20:13:28 22° W visible
16 Mar 0.6 19:13:46 10° W 19:16:59 78° N 19:17:49 46° ENE visible
17 Mar 0.6 18:15:23 10° W 18:18:35 90° NW 18:21:48 10° E visible
17 Mar 1.7 19:52:05 10° W 19:54:25 44° WNW 19:54:25 44° WNW visible
